This is the latest recevied weather packets stored in our database for station/object 7M1JBF-11. If no packets are shown the sender has not sent any weather packets the latest 10 day(s).
| Time | Temp. | Humidity | Pressure | Rain* | Wind** | Luminosity | Snow |
|---|---|---|---|---|---|---|---|
| 1777331621 | 23.89° C | 100% | 1011.9 hPa | 0 mm | - | - | - |
| 1777331019 | 23.33° C | 100% | 1012 hPa | 0 mm | - | - | - |
| 1777330418 | 22.78° C | 100% | 1011.9 hPa | 0 mm | - | - | - |
| 1777329816 | 22.22° C | 100% | 1012 hPa | 0 mm | - | - | - |
| 1777329215 | 22.22° C | 100% | 1012 hPa | 0 mm | - | - | - |
| 1777328012 | 21.11° C | 100% | 1012.3 hPa | 0 mm | - | - | - |
| 1777327411 | 20.56° C | 100% | 1012.1 hPa | 0 mm | - | - | - |
| 1777326810 | 20° C | 100% | 1012.2 hPa | 0 mm | - | - | - |
| 1777326208 | 19.44° C | 100% | 1012.3 hPa | 0 mm | - | - | - |
| 1777325607 | 18.33° C | 100% | 1012.2 hPa | 0 mm | - | - | - |
| 1777325006 | 17.22° C | 100% | 1012.3 hPa | 0 mm | - | - | - |
| 1777324404 | 16.11° C | 100% | 1012.2 hPa | 0 mm | - | - | - |
| 1777323803 | 15.56° C | 100% | 1012.2 hPa | 0 mm | - | - | - |
| 1777323201 | 14.44° C | 100% | 1012.1 hPa | 0 mm | - | - | - |
| 1777322600 | 14.44° C | 100% | 1011.9 hPa | 0 mm | - | - | - |
| 1777321999 | 13.89° C | 100% | 1012 hPa | 0 mm | - | - | - |
| 1777321397 | 13.33° C | 100% | 1011.9 hPa | 0 mm | - | - | - |
| 1777320796 | 13.33° C | 100% | 1011.9 hPa | 0 mm | - | - | - |
| 1777320195 | 13.33° C | 100% | 1011.7 hPa | 0 mm | - | - | - |
| 1777319593 | 13.33° C | 100% | 1011.6 hPa | 0 mm | - | - | - |
| 1777318992 | 13.33° C | 100% | 1011.6 hPa | 0 mm | - | - | - |
| 1777318390 | 13.33° C | 100% | 1011.4 hPa | 0 mm | - | - | - |
| 1777317789 | 13.33° C | 100% | 1011.4 hPa | 0 mm | - | - | - |
| 1777317188 | 13.33° C | 100% | 1011.4 hPa | 0 mm | - | - | - |
| 1777316587 | 13.33° C | 100% | 1011.4 hPa | 0 mm | - | - | - |
* Rain since midnight (hover to see other rain measurements)
** Current wind speed in m/s (hover to see current wind gust speed)